Location: Grangie
(44.4000°N, 6.9167°E)
Time: 13:04:39
(UTC+00:00)

Daily predictions for brighter satellites

Satellite Brightness Start Highest point End
(mag) Time Altitude Azimuth Time Altitude Azimuth Time Altitude Azimuth
NOSS 2-1 (D) 4.2 19:46:15 10° NW 19:50:54 82° NE 19:57:32 10° SE
H-2A R/B 2.1 19:51:29 10° NNE 19:55:57 75° ESE 20:00:26 10° S
Cosmos 1536 Rocket 4.4 19:52:57 10° SSE 19:56:45 31° E 20:00:36 10° NNE
Cosmos 2056 Rocket 4.2 19:51:53 10° SSW 19:57:14 65° WNW 20:02:40 10° NNE
ARGOS Delta rocket 4.5 19:53:41 10° N 19:58:11 57° WNW 20:02:31 10° SSW
Cosmos 1455 2.4 19:54:42 10° N 19:58:27 53° E 20:02:11 10° SSE
Cosmos 1420 Rocket 4.3 19:54:21 10° SSW 19:59:36 75° WNW 20:04:56 10° NNE
Cosmos 1709 Rocket 4.2 19:54:35 10° N 20:00:50 82° W 20:07:08 10° S
CARTOSAT-1 4.2 19:57:22 10° SE 20:01:24 41° ENE 20:05:28 10° N
Cosmos 1975 Rocket 3.7 19:58:22 10° SSW 20:02:45 62° W 20:07:09 10° N
SL-24 R/B 4.5 19:59:38 10° SSE 20:03:54 58° ENE 20:08:47 10° N
Cosmos 676 Rocket 4.2 19:58:35 10° NNW 20:03:54 78° WSW 20:09:08 10° SSE
ATLAS 5 CENTAUR R/B 3.4 19:53:07 10° NW 20:06:17 69° WSW 20:10:10 10° SSE
Tiangong 3.0 20:05:01 10° WSW 20:07:16 18° SSW 20:09:31 10° SSE
Cosmos 2315 Rocket 4.2 20:01:08 10° S 20:07:27 83° W 20:13:47 10° N
SPOT 3 Rocket 4.0 20:05:55 10° SE 20:10:54 49° ENE 20:15:56 10° N
Ariane Rocket 3.0 20:07:21 10° SSE 20:12:26 78° ENE 20:17:33 10° N
Cosmos 2074 Rocket 4.4 20:07:34 10° N 20:13:38 48° ENE 20:19:37 10° SSE
Cosmos 1544 Rocket 3.6 20:16:03 10° N 20:20:24 81° W 20:24:44 10° S
Lacrosse 5 rocket 3.5 20:19:11 10° W 20:21:42 17° SW 20:24:17 10° SSW
GEOS 3 Rocket 3.9 20:17:27 10° SSE 20:22:29 62° SW 20:27:34 10° NW
Cosmos 1656 3.7 20:17:28 10° NNW 20:22:59 86° ENE 20:28:14 12° SSE
ATLAS 2AS CENTAUR R/B 3.3 20:22:40 10° NW 20:29:27 53° WSW 20:35:48 10° SSE
MetOp-B 4.2 20:24:22 10° SSE 20:29:43 88° WSW 20:35:07 10° NNW
Cosmos 1850 Rocket 4.0 20:26:41 10° NNW 20:31:54 73° ENE 20:36:19 14° SSE
USA 32 4.4 20:29:07 10° SSW 20:34:18 69° W 20:39:32 10° N
Cosmos 1980 Rocket 3.5 20:29:34 10° N 20:34:33 30° NE 20:39:07 12° ESE
Cosmos 1697 Rocket 3.1 20:29:33 10° NNW 20:35:04 54° ENE 20:39:32 15° SE
Cosmos 1331 Rocket 4.1 20:32:00 10° S 20:37:10 55° ESE 20:42:21 10° NNE
SL-8 R/B 3.7 20:32:23 10° WNW 20:37:13 89° NE 20:41:22 14° ESE
SPOT 1/Viking Rocket 4.3 20:35:12 10° S 20:40:10 50° W 20:45:12 10° NNW
COSMOS 2406 3.7 20:37:05 10° S 20:42:28 42° ESE 20:47:51 10° NE
Spot 2 Rocket 3.7 20:38:47 15° SSE 20:42:56 63° ENE 20:48:00 10° N
X-37B 0.2 20:42:28 10° W 20:45:17 84° SSW 20:47:01 21° ESE
Cosmos 2154 Rocket 4.2 20:39:08 10° N 20:45:17 59° E 20:50:11 16° SSE
ATLAS 5 CENTAUR R/B 3.4 20:48:00 10° E 20:48:00 10° E 20:48:03 10° E
CZ-2C R/B 4.1 20:44:31 10° NNE 20:48:52 43° E 20:51:58 17° SSE
SPOT 5 2.6 20:49:45 18° SSE 20:52:57 74° ENE 20:57:16 10° N
Cosmos 1703 3.3 20:51:29 10° SSW 20:55:19 75° W 20:59:11 10° N
Cosmos 2084 Rocket 3.9 20:53:45 10° NNW 20:57:33 48° NE 21:00:03 20° ESE
Cosmos 1452 Rocket 4.2 20:53:10 10° SW 20:58:20 58° WNW 21:03:33 10° NNE
Cosmos 1833 Rocket 2.7 20:52:55 10° SSW 20:58:32 87° WNW 21:04:12 10° NNE
RESURS DK-1 2.7 20:54:32 10° NW 20:58:37 60° WSW 21:01:19 20° S
Terra 2.0 20:56:27 20° SSE 20:59:37 60° ENE 21:04:19 10° N
Delta 2 Rocket 4.4 20:57:53 10° SW 20:59:57 18° S 20:59:57 18° S
CZ-4B R/B 3.8 21:00:25 10° NNW 21:02:32 19° WNW 21:04:38 10° WSW
Cosmos 967 Rocket 4.5 20:57:00 10° SSW 21:03:28 85° ESE 21:09:58 10° NE
Helios 1A Rocket 2.9 21:01:06 21° SSE 21:03:44 89° E 21:07:52 10° NNW
Cosmos 1110 Rocket 4.1 20:59:01 10° SSW 21:04:16 80° WNW 21:09:37 10° NNE
ERS-1 Rocket 2.9 21:02:33 20° SSE 21:06:09 87° ENE 21:11:13 10° NNW
Cosmos 1892 Rocket 4.1 21:04:14 24° SE 21:06:22 40° E 21:10:28 10° NNE
Resurs 01 Rocket 3.9 21:03:36 10° SW 21:06:56 20° W 21:10:16 10° NW
Cosmos 1302 Rocket 4.2 21:03:52 17° S 21:07:36 49° ESE 21:12:36 10° NNE
Cosmos 2322 Rocket 4.5 21:06:21 10° N 21:09:15 14° NE 21:12:08 10° ENE
Cosmos 2228 3.2 21:08:14 10° NNW 21:12:28 68° W 21:15:16 20° S
Cosmos 2058 Rocket 4.0 21:09:21 10° N 21:13:25 35° ENE 21:15:19 24° ESE
Cosmos 1825 4.0 21:15:03 16° E 21:15:20 16° E 21:17:43 10° NE
Cosmos 2184 Rocket 4.4 21:10:23 10° NNW 21:16:27 61° W 21:21:54 13° S
Cosmos 1408 3.2 21:16:15 31° ESE 21:16:53 34° E 21:20:02 10° NNE
Lacrosse 5 4.0 21:15:52 10° W 21:18:56 16° WSW 21:21:59 10° SSW
Cosmos 968 Rocket 3.6 21:18:40 10° NNW 21:23:51 64° ENE 21:26:36 28° SE
Cosmos 1328 3.8 21:22:05 22° S 21:24:34 83° W 21:28:35 10° N
USA 276 4.0 21:25:28 10° WNW 21:28:09 28° N 21:30:50 10° ENE
Cosmos 2082 Rocket 2.1 21:27:22 14° SSW 21:32:19 74° ESE 21:38:01 10° NNE
SJ 16-02 3.8 21:30:55 10° NNE 21:32:49 12° NE 21:34:42 10° ENE
ASTRO F (AKARI) 4.4 21:32:26 43° SSE 21:33:30 86° E 21:37:02 10° NNW
Cosmos 1867 3.7 21:28:07 10° NNW 21:33:35 67° NE 21:36:30 28° SE
USA 267 3.4 21:31:19 10° ENE 21:37:37 48° SE 21:43:53 10° SSW
ARIANE 5 R/B 2.6 21:35:43 31° S 21:37:49 78° WSW 21:42:15 10° NNW
Cosmos 1606 Rocket 4.1 21:36:57 10° NNW 21:41:09 51° W 21:43:23 25° SSW
GP-B 3.3 21:37:45 10° N 21:42:08 56° E 21:43:34 38° SSE
Cosmos 2341 Rocket 4.0 21:37:19 10° N 21:43:40 77° E 21:47:01 29° SSE
Cosmos 2360 Rocket 4.4 21:41:51 10° N 21:45:24 17° NE 21:48:56 10° E
SAR-Lupe-4 3.6 21:42:46 10° NNE 21:46:19 56° E 21:46:46 51° SE
CSL-04 DEB 4.5 21:48:33 10° NNE 21:52:55 72° ESE 21:54:21 41° S
Okean 1-7 Rocket 3.7 21:58:40 44° SSE 21:59:47 60° E 22:04:14 10° NNE
SAR-Lupe-1 4.1 21:59:18 10° N 22:02:53 78° WNW 22:03:39 52° SSW
Cosmos 1892 2.8 22:02:06 45° SSW 22:03:07 69° W 22:06:53 10° N
Cosmos 2181 Rocket 3.9 22:07:21 31° S 22:10:29 86° E 22:16:46 10° N
USA 234 4.0 22:05:16 10° E 22:11:32 50° NNE 22:17:48 10° NW
Cosmos 1633 3.5 22:12:09 33° ENE 22:12:09 33° ENE 22:14:57 10° NNE
Cosmos 1992 Rocket 3.9 22:15:18 34° SSW 22:17:39 90° WNW 22:22:55 10° NNE
Cosmos 1697 Rocket 4.3 22:14:16 10° NW 22:18:37 24° WSW 22:21:16 17° SW
Cosmos 1980 Rocket 2.8 22:13:19 10° NW 22:18:45 47° WSW 22:20:52 32° SSW
SL-16 R/B 2.8 22:13:22 10° NNW 22:18:54 50° ENE 22:21:23 30° ESE
Cosmos 1821 Rocket 4.4 22:12:56 10° N 22:18:58 49° ENE 22:21:23 33° SE
Cosmos 1486 Rocket 3.9 22:14:10 10° NNW 22:19:25 85° ENE 22:21:05 45° SSE
X-37B 3.3 22:18:13 10° W 22:18:13 10° W 22:18:13 10° W
Cosmos 1812 Rocket 4.0 22:16:57 10° N 22:21:19 50° ENE 22:22:08 44° ESE
Cosmos-2242 3.4 22:26:31 10° N 22:30:39 49° ENE 22:31:12 45° ESE
ATLAS 5 CENTAUR R/B 1.6 22:29:23 37° WSW 22:30:40 62° NW 22:34:47 10° NNE
Cosmos 1602 Rocket 3.4 22:32:11 63° SSE 22:32:47 76° E 22:37:06 10° NNE
Cosmos 1869 3.4 22:30:55 10° NNW 22:34:46 60° W 22:35:09 56° SW
Terra 4.0 22:35:21 12° WSW 22:37:45 16° W 22:40:40 10° NW
Nadezhda 3 Rocket 4.2 22:36:22 40° SSE 22:38:22 57° E 22:44:23 10° NNE
ERS-2 4.0 22:35:45 10° NE 22:37:40 19° ENE 22:37:40 19° ENE
ALOS 2 2.9 22:39:48 48° ESE 22:40:35 55° ENE 22:44:53 10° N
FALCON 9 DEB 3.7 22:39:44 10° NW 22:42:17 51° NW 22:42:17 51° NW
Cosmos 1354 Rocket 4.0 22:42:20 10° NNW 22:47:40 74° ENE 22:49:06 48° SE
BREEZE-M DEB (TANK) 4.3 22:45:30 10° WNW 22:48:54 63° NNE 23:02:29 10° E
ADEOS Rocket 3.6 22:45:43 35° SSE 22:49:10 74° ENE 22:56:53 10° N
Cosmos 1825 3.4 22:49:40 30° W 22:50:23 33° WNW 22:53:49 10° N
Cosmos 2322 Rocket 2.4 22:48:45 10° NNW 22:54:26 67° ENE 22:56:24 41° SE
Cosmos 1503 Rocket 4.0 22:52:08 10° NNW 22:57:26 76° WSW 22:58:35 54° S
Cosmos 1953 Rocket 4.3 22:58:43 38° E 22:58:55 39° E 23:03:02 10° NNE
USA 276 3.8 23:01:12 10° WNW 23:02:50 28° NW 23:02:50 28° NW
MINOTAUR IV R/B 4.5 23:00:39 10° NNW 23:05:16 81° WSW 23:05:45 70° S
Cosmos 1777 Rocket 4.1 23:00:11 10° NNW 23:05:29 69° ENE 23:06:52 48° SE
Cosmos 1825 Rocket 3.3 23:08:18 74° SE 23:08:34 78° E 23:12:54 10° N
Cosmos 2333 Rocket 3.4 23:04:13 10° NNW 23:09:35 37° NE 23:12:51 21° ESE
CENTAUR R/B 4.1 23:09:34 15° ESE 23:09:57 15° ESE 23:13:29 10° ENE
Gbstr 26 Del rocket 3.0 23:11:09 64° ESE 23:11:09 64° ESE 23:15:52 10° ENE
SJ 16-02 1.2 23:07:32 10° NNW 23:11:59 82° WSW 23:12:19 75° SSW
Cosmos 1340 Rocket 3.1 23:13:04 53° E 23:13:04 53° E 23:16:42 10° NNE
Cosmos 2082 Rocket 4.4 23:12:45 10° W 23:17:01 21° NW 23:21:18 10° N
H-2A R/B 3.8 23:16:12 10° N 23:20:20 56° WNW 23:20:55 50° WSW
USA 267 3.7 23:14:18 10° NE 23:20:43 60° NNW 23:27:07 10° WSW
Cosmos 2058 2.9 23:26:08 69° WSW 23:26:21 71° W 23:30:33 10° N
Cosmos 2221 3.0 23:23:32 10° N 23:27:47 49° ENE 23:28:17 47° ESE
Cosmos 1606 3.3 23:24:45 10° NNW 23:28:16 47° W 23:28:16 47° W
Cosmos 2360 Rocket 2.2 23:24:36 10° NNW 23:30:20 82° ENE 23:32:00 48° SE
Cosmos 1842 Rocket 4.4 23:26:13 10° N 23:30:28 40° ENE 23:31:14 37° ESE
Cosmos 1934 Rocket 3.9 23:25:04 10° N 23:31:11 87° E 23:33:06 47° S
Nimbus 7 Rocket 4.4 23:28:58 10° NNE 23:34:55 71° ESE 23:36:36 48° S
Resurs 1-4 Rocket 4.5 23:35:03 10° ENE 23:36:03 10° E 23:37:02 10° E
Cosmos 1782 4.4 23:33:15 10° NNE 23:36:33 24° ENE 23:37:13 23° E
Cosmos 1833 4.1 23:39:57 53° SSW 23:41:18 82° ESE 23:46:56 10° NNE
Cosmos 44 2.9 23:41:21 74° S 23:41:42 81° ESE 23:46:12 10° NE
Meteor 2-2 Rocket 4.4 23:36:57 10° NNW 23:42:55 68° W 23:44:36 47° SSW
CZ-2D R/B 4.4 23:42:48 10° ENE 23:44:46 12° E 23:46:39 10° ESE
Cosmos 2237 4.5 23:40:23 10° NW 23:45:54 50° WSW 23:46:53 45° SW
Cosmos 1339 Rocket 4.4 23:50:04 46° SSW 23:52:04 79° W 23:58:15 10° N
